User: anonymous   Login
Location: Unspecified
(0.0000°N, 0.0000°E)
Time: 02:54:28
(UTC+00:00)
Language:

STARLINK-35246 - Orbit

View from above orbital plane
View from above orbital plane
View from above satellite
View from above satellite

Ground track
Ground track

The orbit is defined by the following mean orbital elements,

1 65660U          26145.12997219 +.00000000 +00000-0 -80354-4 0 00009
2 65660  97.4441 189.0394 0002097 121.7295 238.4137 15.05659594    00
Epoch (UTC): 25 May 2026 03:07:09
Eccentricity: 0.0002097
inclination: 97.4441°
perigee height: 548 km
apogee height: 551 km
right ascension of ascending node: 189.0394°
argument of perigee: 121.7295°
revolutions per day: 15.05659594
mean anomaly at epoch: 238.4137°

The dashed part of the orbit path shows where the satellite is in the earth's shadow,  

DLR